DELTA 1 DEB

Satellite information

Favourite Embed

Satellite Type and Status

DEBRISIN ORBIT

Key statistics

Satellite DELTA 1 DEB at a glance.

Uptime

19037

Days in orbit

Revolutions

≈ 12.0

Per day

Orbit

SSO

Sun Synchronous Orbit

Inclination

101.9

Latest

Satellite identification and parameters

Extended collection of information and parameters for DELTA 1 DEB.

Object identification

Identified? True

Debris? True

Object name: DELTA 1 DEB

International designator: 1973-086CR

Object number (NORAD): 7127

Object ID (CCSDS): 7127

Country: UNITED STATES OF AMERICA (US)

Current information (Y/N): Y

RCS size: SMALL

Orbital parameters

Period: 119.926 minutes

Inclination: 101.886 deg

SMA: 8055.664 km

Apoapsis: 1892.365 km

Periapsis: 1462.693 km

RAAN: 21.2893 deg

Eccentricy: 0.02666893

Argument of periapsis: 259.368 deg

Mean anomaly: 256.0588 deg

Mean motion: 12.00744822 rev/day

Mean motion (dot): 0.00000328 rev/day2

B* drag term: 0.0040732637 1/REarth

Two-line elements (TLE)

Creation date: Dec. 19, 2025, 2:08 a.m.

Reference frame: TEME

Reference center: EARTH

Epoch: Dec. 18, 2025, 2:38 p.m. UTC

TLE line 0: 0 DELTA 1 DEB

TLE line 1: 1 07127U 73086CR 25352.61029877 .00000328 00000-0 40733-2 0 9990

TLE line 2: 2 07127 101.8860 21.2893 0266689 259.3680 256.0588 12.00744822283443

Live tracking on map

Real-time ground track for satellite DELTA 1 DEB.

In-orbit conjunctions

A list of the most updated potential collisions computed for object DELTA 1 DEB.

Target Orbit TCA Probability of collision Miss distance Type
COSMOS 1927 LEO 2025-05-21 20:02:15 0.001054372 274.0 (m) PAYLOAD
SL-8 DEB LEO 2024-09-20 16:53:42 0.000128383 232.0 (m) DEBRIS

Associated space launch

Meteorological satellite using radiometric imaging

DELTA 1 DEB was lifted into orbit during the mission ‘Delta 0300 | NOAA 3’, on board a Delta 0300 space rocket.

The launch took place on Nov. 6, 1973, 5:02 p.m. from Space Launch Complex 2W.

For more information about the launch, click the button.

Launch to space Delta 0300 | NOAA 3
Delta 0300 | NOAA 3

Agency: N/A

Status: Launch Successful

Launch date: Nov. 6, 1973, 5:02 p.m. UTC

Rocket: Delta 0300

Launch pad: Space Launch Complex 2W

Location: Vandenberg SFB, CA, USA

...

Latest news about this satellite

There are no fresh news available about this satellite. Check back as we update our databases every day.


Newsletter sign-up

Weekly statistics, charts and insights to help you stay on top of the space industry.